Location: Zapote
(9.9191°N, 84.0597°W)
Time: 16:04:52
(UTC-06:00)

Courier 1B Rocket - Pass Details

Date: 10 March 2021
Orbit: 920 x 1202 km, 28.2° (Epoch: 11 April)

Event Time Altitude Azimuth Distance (km) Brightness Sun altitude
Rises 19:56:30 0° 280° (W) 4,044 9.3 -32.7°
Reaches altitude 10° 19:59:39 10° 271° (W) 3,104 8.4 -33.5°
Maximum altitude 20:06:22 32° 211° (SSW) 1,928 6.6 -35.1°
Enters shadow 20:07:55 30° 190° (S) 2,009 6.6 -35.5°
